Stations météo

Publicité
Cap-de-la Heve, France (7028): Température de l'air & dewpoint: 21.05.2019 05:00:00 - 27.05.2019 05:00:00 (CEST)Cap-de-la Heve, France (7028): Température de l'air 5cm: 21.05.2019 05:00:00 - 27.05.2019 05:00:00 (CEST)Cap-de-la Heve, France (7028): Vitesse du vent & gusts: 21.05.2019 05:00:00 - 27.05.2019 05:00:00 (CEST)Cap-de-la Heve, France (7028): Direction du vent: 21.05.2019 05:00:00 - 27.05.2019 05:00:00 (CEST)Cap-de-la Heve, France (7028): reduced air pressure: 21.05.2019 05:00:00 - 27.05.2019 05:00:00 (CEST)Cap-de-la Heve, France (7028): visibility: 21.05.2019 05:00:00 - 27.05.2019 05:00:00 (CEST)Cap-de-la Heve, France (7028): Quantités de précipitations: 21.05.2019 05:00:00 - 27.05.2019 05:00:00 (CEST)
Date & Time tt [°C] td [°C] tt 5cm [°C] ff [km/h] ff [knt] fx [km/h] fx [knt] dd ppp [hPa] vv [km] rr [mm]
27.05.2019 05:00:00 - - - - - - - - - - -
27.05.2019 04:00:00 13,0 12,7 13,0 13 7 31 17 W 1013,6 - 0,0
27.05.2019 03:00:00 13,2 12,9 13,2 10 5 43 23 WNW 1013,8 - 0,0
27.05.2019 02:00:00 13,2 13,0 13,2 18 10 43 23 W 1013,8 20 0,0
27.05.2019 01:00:00 13,3 13,1 13,3 18 10 39 21 WSW 1014,3 - 0,0
27.05.2019 00:00:00 13,4 13,1 13,4 22 12 49 26 WSW 1014,8 - 0,0
26.05.2019 23:00:00 13,7 13,1 13,7 18 10 43 23 WSW 1015,1 20 0,0
26.05.2019 22:00:00 14,1 13,1 14,0 19 10 42 23 SW 1014,8 - 0,0
26.05.2019 21:00:00 14,3 12,5 14,4 16 8 36 19 WSW 1015,0 - 0,0
26.05.2019 20:00:00 14,3 12,3 14,4 23 12 44 24 WSW 1015,5 20 0,0
26.05.2019 19:00:00 14,5 12,5 15,2 25 13 35 19 W 1015,9 - 0,0
26.05.2019 18:00:00 14,5 12,5 15,4 22 12 37 20 W 1016,2 - 0,0
26.05.2019 17:00:00 15,5 12,6 15,8 23 12 40 22 W 1016,5 20 0,0
26.05.2019 16:00:00 14,6 12,5 15,6 26 14 40 22 W 1017,1 - 0,0
26.05.2019 15:00:00 15,0 12,1 16,9 13 7 32 17 W 1017,4 - 0,0
26.05.2019 14:00:00 15,7 12,3 16,1 22 12 35 19 W 1017,7 15 0,0
26.05.2019 13:00:00 14,8 12,1 16,6 18 10 31 17 W 1018,1 - 0,0
26.05.2019 12:00:00 14,9 12,8 17,1 19 10 35 19 W 1018,3 - 0,0
26.05.2019 11:00:00 15,0 13,2 15,0 20 11 33 18 W 1018,3 15 0,0
26.05.2019 10:00:00 13,9 12,9 13,7 20 11 34 19 WSW 1018,4 - 0,0
26.05.2019 09:00:00 13,3 12,7 13,4 16 9 35 19 WSW 1018,6 - 0,0
26.05.2019 08:00:00 13,1 12,6 13,0 16 9 32 17 WSW 1018,6 8 0,0
26.05.2019 07:00:00 12,9 12,4 12,8 10 5 29 16 SW 1018,5 - 0,0
26.05.2019 06:00:00 12,7 12,2 12,6 14 8 30 16 WSW 1018,6 - 0,0
26.05.2019 05:00:00 12,5 12,0 12,5 13 7 31 17 W 1018,9 7 0,0
26.05.2019 04:00:00 12,4 11,9 12,4 13 7 31 17 WSW 1019,3 - 0,0
26.05.2019 03:00:00 12,7 11,9 12,3 14 8 27 14 WSW 1019,4 - 0,0
26.05.2019 02:00:00 12,7 11,8 12,4 11 6 28 15 WSW 1019,8 15 0,0
26.05.2019 01:00:00 13,2 11,9 12,8 20 11 28 15 W 1020,1 - 0,0
26.05.2019 00:00:00 13,5 11,9 12,5 18 10 29 16 W 1020,5 - 0,0
25.05.2019 23:00:00 13,2 11,9 12,5 13 7 26 14 WNW 1020,7 15 0,0
25.05.2019 22:00:00 13,4 12,0 12,7 13 7 22 12 NNW 1020,4 - 0,0
25.05.2019 21:00:00 13,7 11,9 13,3 14 7 24 13 NW 1020,0 - 0,0
25.05.2019 20:00:00 14,7 11,7 17,3 13 7 27 15 NW 1020,1 10 0,0
25.05.2019 19:00:00 14,8 11,4 19,4 14 7 28 15 NNW 1020,2 - 0,0
25.05.2019 18:00:00 15,0 11,4 21,7 14 7 24 13 NNW 1020,2 - 0,0
25.05.2019 17:00:00 15,1 11,3 23,4 15 8 25 14 NNW 1020,3 10 0,0
25.05.2019 16:00:00 15,4 12,3 22,9 12 6 20 11 NNW 1020,4 - 0,0
25.05.2019 15:00:00 15,2 12,9 19,9 8 5 16 9 NW 1020,6 - 0,0
25.05.2019 14:00:00 15,8 12,7 20,0 13 7 18 10 WNW 1020,9 10 0,0
25.05.2019 13:00:00 15,0 12,9 18,4 9 5 16 9 W 1020,9 - 0,0
25.05.2019 12:00:00 14,3 12,5 18,3 10 5 18 10 WNW 1021,1 - 0,2
25.05.2019 11:00:00 13,8 12,4 16,1 12 6 21 11 WNW 1021,0 12 0,0
25.05.2019 10:00:00 13,3 12,4 14,3 13 7 23 12 NW 1020,4 - 0,0
25.05.2019 09:00:00 13,1 12,5 14,3 6 3 19 10 WNW 1020,0 - 0,0
25.05.2019 08:00:00 12,9 12,6 12,4 8 5 20 11 NW 1019,6 12 0,0
25.05.2019 07:00:00 12,6 12,3 11,9 6 3 14 7 WNW 1019,3 - 0,0
25.05.2019 06:00:00 12,4 11,9 11,3 5 3 12 7 W 1019,0 - 0,0
25.05.2019 05:00:00 12,4 11,9 11,6 4 2 16 9 NW 1018,8 12 0,0
25.05.2019 04:00:00 12,6 12,0 11,7 6 3 21 11 WNW 1019,0 - 0,0
25.05.2019 03:00:00 12,5 11,9 11,3 8 4 21 11 W 1019,1 - 0,0
25.05.2019 02:00:00 12,5 11,6 11,2 5 3 12 6 WNW 1019,2 - 0,0
25.05.2019 01:00:00 12,6 10,8 11,0 8 4 12 6 NW 1019,4 - 0,0
25.05.2019 00:00:00 12,5 10,7 11,1 9 5 15 8 NNW 1019,5 - 0,0
24.05.2019 23:00:00 12,4 11,0 11,1 8 4 14 8 NNW 1019,3 - 0,0
24.05.2019 22:00:00 12,6 11,2 11,5 7 4 16 9 NNW 1018,8 - 0,0
24.05.2019 21:00:00 13,3 11,2 13,4 8 5 19 10 NW 1018,6 - 0,0
24.05.2019 20:00:00 14,2 11,5 16,5 9 5 18 10 WNW 1018,4 8 0,0
24.05.2019 19:00:00 14,7 11,5 19,0 11 6 22 12 WNW 1018,4 - 0,0
24.05.2019 18:00:00 15,1 11,5 20,1 13 7 24 13 WNW 1018,7 - 0,0
24.05.2019 17:00:00 15,4 11,0 21,8 12 6 24 13 NW 1018,6 20 0,0
24.05.2019 16:00:00 15,3 11,7 21,6 13 7 22 12 WNW 1018,8 - 0,0
24.05.2019 15:00:00 15,1 11,7 22,5 14 7 24 13 WNW 1018,9 - 0,0
24.05.2019 14:00:00 14,9 11,7 22,4 14 7 26 14 WNW 1018,9 - 0,0
24.05.2019 13:00:00 14,7 11,7 19,9 15 8 24 13 WNW 1018,9 - 0,0
24.05.2019 12:00:00 14,3 11,4 19,7 11 6 22 12 WNW 1018,8 - 0,0
24.05.2019 11:00:00 13,7 11,0 19,1 12 7 22 12 WNW 1018,6 15 0,0
24.05.2019 10:00:00 15,0 11,8 20,5 11 6 18 10 W 1018,1 - 0,0
24.05.2019 09:00:00 13,2 11,4 14,4 4 2 11 6 WNW 1017,9 - 0,0
24.05.2019 08:00:00 12,8 11,5 11,9 4 2 13 7 WNW 1017,8 6 0,0
24.05.2019 07:00:00 11,6 10,8 10,2 7 4 16 9 WNW 1017,5 - 0,0
24.05.2019 06:00:00 11,1 9,4 10,2 7 4 23 13 W 1017,3 - 0,0
24.05.2019 05:00:00 11,7 9,4 9,7 8 5 16 9 WNW 1017,1 30 0,0
24.05.2019 04:00:00 11,1 8,3 9,5 5 3 12 6 WNW 1017,3 - 0,0
24.05.2019 03:00:00 11,5 8,5 9,6 4 2 12 6 WNW 1017,4 - 0,0
24.05.2019 02:00:00 11,5 8,4 9,5 6 3 11 6 NW 1017,6 30 0,0
24.05.2019 01:00:00 11,8 8,1 9,1 9 5 13 7 NW 1017,8 - 0,0
24.05.2019 00:00:00 11,3 6,6 9,4 0 0 5 3 N 1017,9 - 0,0
23.05.2019 23:00:00 12,4 6,7 9,9 4 2 9 5 N 1017,9 - 0,0
23.05.2019 22:00:00 13,2 3,8 11,0 5 3 9 5 NNW 1017,8 - 0,0
23.05.2019 21:00:00 14,4 2,9 13,8 8 5 17 9 N 1017,6 - 0,0
23.05.2019 20:00:00 14,7 4,7 15,1 11 6 26 14 N 1017,2 40 0,0
23.05.2019 19:00:00 14,8 7,1 14,1 14 7 25 14 NNE 1017,1 - 0,0
23.05.2019 18:00:00 14,8 8,1 13,7 9 5 29 16 NE 1017,5 - 0,0
23.05.2019 17:00:00 15,9 11,5 16,8 18 10 29 16 N 1016,9 - 0,0
23.05.2019 16:00:00 17,5 10,8 18,9 15 8 29 16 NNW 1017,1 - 0,0
23.05.2019 15:00:00 20,7 11,6 24,2 10 5 23 12 W 1016,9 - 0,0
23.05.2019 14:00:00 20,8 10,6 21,6 12 7 24 13 SSW 1017,1 25 0,0
23.05.2019 13:00:00 19,6 9,5 21,4 13 7 23 12 SSW 1017,7 - 0,0
23.05.2019 12:00:00 19,2 9,9 18,7 12 7 18 10 S 1018,0 - 0,0
23.05.2019 11:00:00 17,5 9,1 19,0 12 7 25 14 SSE 1018,0 - 0,0
23.05.2019 10:00:00 17,1 8,8 18,0 16 9 25 13 SSE 1018,0 - 0,0
23.05.2019 09:00:00 16,4 7,9 16,6 13 7 23 13 SE 1018,2 - 0,0
23.05.2019 08:00:00 15,3 7,3 14,5 15 8 26 14 SE 1018,2 20 0,0
23.05.2019 07:00:00 14,8 6,9 14,0 13 7 22 12 SE 1018,1 - 0,0
23.05.2019 06:00:00 14,8 6,6 13,6 13 7 22 12 SE 1018,1 - 0,0
23.05.2019 05:00:00 14,2 6,3 12,9 14 8 26 14 ESE 1018,3 20 0,0
23.05.2019 04:00:00 13,9 5,3 12,8 16 9 27 15 E 1018,6 - 0,0
23.05.2019 03:00:00 13,8 5,9 12,8 14 8 23 12 E 1019,0 - 0,0
23.05.2019 02:00:00 14,3 5,4 13,3 14 8 22 12 E 1019,3 20 0,0
23.05.2019 01:00:00 14,9 4,6 13,4 11 6 16 8 E 1019,5 - 0,0
23.05.2019 00:00:00 15,1 3,6 13,5 10 5 16 9 ENE 1019,8 - 0,0
22.05.2019 23:00:00 15,4 3,8 12,8 8 4 9 5 ENE 1020,0 20 0,0
22.05.2019 22:00:00 15,8 3,9 12,9 5 3 7 4 ENE 1019,9 - 0,0
22.05.2019 21:00:00 17,6 3,1 16,7 3 2 8 4 NE 1019,9 - 0,0
22.05.2019 20:00:00 18,2 2,5 20,6 3 2 9 5 N 1020,2 20 0,0
22.05.2019 19:00:00 18,4 5,2 22,0 5 3 11 6 W 1020,3 - 0,0
22.05.2019 18:00:00 17,9 3,7 21,0 6 4 12 7 NW 1020,5 - 0,0
22.05.2019 17:00:00 17,4 2,9 21,7 8 4 14 8 NNW 1020,8 20 0,0
22.05.2019 16:00:00 16,8 3,1 21,3 7 4 12 7 NW 1021,2 - 0,0
22.05.2019 15:00:00 16,1 5,4 22,5 6 3 11 6 NW 1021,5 - 0,0
22.05.2019 14:00:00 16,1 8,3 19,9 8 4 13 7 WNW 1021,6 20 0,0
22.05.2019 13:00:00 15,3 8,1 19,2 7 4 13 7 WSW 1021,6 - 0,0
22.05.2019 12:00:00 15,0 9,6 17,5 7 4 13 7 SW 1021,6 - 0,0
22.05.2019 11:00:00 14,0 9,6 15,5 8 4 14 8 SW 1021,4 20 0,0
22.05.2019 10:00:00 12,9 9,3 12,9 8 4 11 6 S 1021,3 - 0,0
22.05.2019 09:00:00 11,6 8,6 12,7 7 4 11 6 SSW 1021,2 - 0,0
22.05.2019 08:00:00 11,4 8,8 10,7 8 4 12 7 S 1020,9 - 0,0
22.05.2019 07:00:00 10,4 9,2 9,8 7 4 11 6 S 1020,8 - 0,0
22.05.2019 06:00:00 10,6 9,7 9,7 7 4 11 6 S 1020,7 - 0,0
22.05.2019 05:00:00 10,9 8,6 10,1 3 2 14 8 SW 1020,8 20 0,0
22.05.2019 04:00:00 11,0 9,3 9,3 6 3 11 6 WSW 1021,0 - 0,0
22.05.2019 03:00:00 11,0 9,6 9,7 3 2 11 6 WNW 1021,0 - 0,0
22.05.2019 02:00:00 11,4 9,5 9,1 6 3 10 6 WNW 1021,0 - 0,0
22.05.2019 01:00:00 11,4 9,6 9,5 5 3 11 6 NW 1020,8 - 0,0
22.05.2019 00:00:00 11,6 9,8 9,4 6 4 9 5 NW 1020,8 - 0,0
21.05.2019 23:00:00 11,8 9,9 9,5 4 2 13 7 WNW 1020,8 20 0,0
21.05.2019 22:00:00 12,7 8,4 11,0 10 5 18 10 NNW 1020,4 - 0,0
21.05.2019 21:00:00 13,9 7,6 13,7 11 6 22 12 N 1020,1 - 0,0
21.05.2019 20:00:00 14,3 9,7 16,5 13 7 24 13 N 1019,8 - 0,0
21.05.2019 19:00:00 14,8 11,2 18,9 15 8 23 12 N 1019,5 - 0,0
21.05.2019 18:00:00 15,9 10,0 20,8 13 7 24 13 N 1019,4 - 0,0
21.05.2019 17:00:00 15,4 10,2 21,5 15 8 24 13 N 1019,4 6 0,0
21.05.2019 16:00:00 14,8 11,0 23,8 13 7 23 13 NNW 1019,6 - 0,0
21.05.2019 15:00:00 14,5 11,3 23,0 16 8 23 12 NNW 1019,5 - 0,0
21.05.2019 14:00:00 13,8 11,7 21,8 13 7 20 11 NW 1019,3 - 0,0
21.05.2019 13:00:00 14,5 12,2 20,6 11 6 17 9 W 1019,1 - 0,0
21.05.2019 12:00:00 14,7 12,2 19,6 12 6 15 8 W 1018,9 - 0,0
21.05.2019 11:00:00 13,9 12,1 15,6 8 4 13 7 W 1018,7 6 0,0
21.05.2019 10:00:00 12,6 11,5 13,6 6 3 16 8 W 1018,4 - 0,0
21.05.2019 09:00:00 12,1 11,2 13,2 6 3 17 9 WNW 1017,9 - 0,0
21.05.2019 08:00:00 12,0 11,2 12,1 4 2 14 8 WNW 1017,4 - 0,0
21.05.2019 07:00:00 11,8 11,0 11,1 11 6 17 9 W 1017,0 - 0,0
21.05.2019 06:00:00 11,6 11,0 10,9 8 4 13 7 WNW 1016,7 - 0,0
21.05.2019 05:00:00 11,7 10,8 11,2 7 4 11 6 W 1016,5 12 0,0

tt = Température de l'air
td = dewpoint
tt 5cm = Température de l'air 5cm
ff = Vitesse du vent
fx = gusts
dd = Direction du vent
ppp = reduced air pressure
vv = visibility
rr = Quantités de précipitations

stations d'obs. à proximité